When you browse on this site, cookies collect data to enhance your experience and personalize the content and advertising you see.
Visit our Privacy Policy to learn more. By continuing to use the site, you agree to this use of cookies and data.
  • In Spain
  • List of Countries
  • For 7 days
  • Water Temperature
  • Satellite Maps
  • Weather Map
  • Weather Widgets
  • user-avatar
    Login

    Hourly Weather Bangalol

    Today, 22 February, Friday

    Time Temperature Precipitation Wind Pressure Humidity
    00:00 +25°C° 0 mm 3 mps 702 mmHg 49%
    01:00 +24°C° 0 mm 3 mps 701 mmHg 52%
    02:00 +22°C° 0 mm 3 mps 701 mmHg 55%
    03:00 +21°C° 0 mm 2 mps 701 mmHg 57%
    04:00 +21°C° 0 mm 2 mps 701 mmHg 59%
    05:00 +20°C° 0 mm 2 mps 701 mmHg 61%
    06:00 +21°C° 0 mm 2 mps 701 mmHg 55%
    07:00 +24°C° 0 mm 3 mps 702 mmHg 48%
    08:00 +25°C° 0 mm 3 mps 702 mmHg 41%
    09:00 +27°C° 0 mm 4 mps 702 mmHg 34%
    10:00 +30°C° 0 mm 5 mps 703 mmHg 26%
    11:00 +33°C° 0 mm 6 mps 703 mmHg 19%
    12:00 +34°C° 0 mm 6 mps 702 mmHg 18%
    13:00 +35°C° 0 mm 7 mps 701 mmHg 16%
    14:00 +35°C° 0 mm 7 mps 700 mmHg 15%
    15:00 +35°C° 0 mm 7 mps 700 mmHg 17%
    16:00 +34°C° 0 mm 6 mps 700 mmHg 18%
    17:00 +33°C° 0 mm 6 mps 700 mmHg 20%
    18:00 +30°C° 0 mm 5 mps 700 mmHg 24%
    19:00 +28°C° 0 mm 4 mps 700 mmHg 28%
    20:00 +27°C° 0 mm 3 mps 701 mmHg 32%
    21:00 +26°C° 0 mm 3 mps 701 mmHg 34%
    22:00 +25°C° 0 mm 3 mps 701 mmHg 36%
    23:00 +24°C° 0 mm 2 mps 701 mmHg 38%

    Tomorrow, 23 February, Saturday

    Time Temperature Precipitation Wind Pressure Humidity
    00:00 +23°C° 0 mm 2 mps 700 mmHg 40%
    01:00 +21°C° 0 mm 2 mps 700 mmHg 42%
    02:00 +21°C° 0 mm 2 mps 699 mmHg 43%
    03:00 +20°C° 0 mm 2 mps 699 mmHg 44%
    04:00 +21°C° 0 mm 1 mps 699 mmHg 44%
    05:00 +20°C° 0 mm 1 mps 699 mmHg 45%
    06:00 +22°C° 0 mm 1 mps 699 mmHg 41%
    07:00 +24°C° 0 mm 1 mps 700 mmHg 36%
    08:00 +25°C° 0 mm 2 mps 700 mmHg 32%
    09:00 +28°C° 0 mm 3 mps 701 mmHg 26%
    10:00 +32°C° 0 mm 4 mps 701 mmHg 20%
    11:00 +35°C° 0 mm 5 mps 701 mmHg 14%
    12:00 +35°C° 0 mm 5 mps 700 mmHg 14%
    13:00 +36°C° 0 mm 5 mps 699 mmHg 13%
    14:00 +38°C° 0 mm 6 mps 699 mmHg 12%
    15:00 +36°C° 0 mm 5 mps 698 mmHg 13%
    16:00 +36°C° 0 mm 5 mps 698 mmHg 14%
    17:00 +35°C° 0 mm 5 mps 698 mmHg 15%
    18:00 +33°C° 0 mm 4 mps 698 mmHg 18%
    19:00 +30°C° 0 mm 4 mps 699 mmHg 22%
    20:00 +27°C° 0 mm 3 mps 699 mmHg 25%
    21:00 +27°C° 0 mm 3 mps 699 mmHg 29%
    22:00 +26°C° 0 mm 3 mps 700 mmHg 33%
    23:00 +25°C° 0 mm 3 mps 700 mmHg 37%

    Day after tomorrow, 24 February, Sunday

    Time Temperature Precipitation Wind Pressure Humidity
    00:00 +24°C° 0 mm 2 mps 699 mmHg 40%
    01:00 +24°C° 0 mm 2 mps 698 mmHg 43%
    02:00 +23°C° 0 mm 2 mps 698 mmHg 45%
    03:00 +22°C° 0 mm 1 mps 698 mmHg 47%
    04:00 +22°C° 0 mm 1 mps 698 mmHg 48%
    05:00 +21°C° 0 mm 1 mps 698 mmHg 49%
    06:00 +23°C° 0 mm 1 mps 698 mmHg 45%
    07:00 +24°C° 0 mm 1 mps 699 mmHg 41%
    08:00 +26°C° 0 mm 1 mps 700 mmHg 36%
    09:00 +28°C° 0 mm 2 mps 700 mmHg 29%
    10:00 +31°C° 0 mm 3 mps 700 mmHg 22%
    11:00 +34°C° 0 mm 4 mps 700 mmHg 16%
    12:00 +35°C° 0 mm 4 mps 700 mmHg 14%
    13:00 +36°C° 0 mm 4 mps 699 mmHg 13%
    14:00 +37°C° 0 mm 4 mps 698 mmHg 12%
    15:00 +36°C° 0 mm 4 mps 698 mmHg 12%
    16:00 +36°C° 0 mm 4 mps 698 mmHg 13%
    17:00 +35°C° 0 mm 4 mps 697 mmHg 14%
    18:00 +33°C° 0 mm 4 mps 698 mmHg 17%
    19:00 +30°C° 0 mm 4 mps 698 mmHg 20%
    20:00 +28°C° 0 mm 4 mps 699 mmHg 23%
    21:00 +27°C° 0 mm 3 mps 699 mmHg 28%
    22:00 +26°C° 0 mm 3 mps 699 mmHg 33%
    23:00 +25°C° 0 mm 3 mps 700 mmHg 38%

    25 February, Monday

    Time Temperature Precipitation Wind Pressure Humidity
    00:00 +25°C° 0 mm 2 mps 699 mmHg 41%
    01:00 +24°C° 0 mm 2 mps 698 mmHg 44%
    02:00 +23°C° 0 mm 2 mps 698 mmHg 48%
    03:00 +23°C° 0 mm 1 mps 698 mmHg 50%
    04:00 +22°C° 0 mm 1 mps 697 mmHg 51%
    05:00 +21°C° 0 mm 1 mps 697 mmHg 53%
    06:00 +23°C° 0 mm 1 mps 698 mmHg 50%
    07:00 +24°C° 0 mm 1 mps 699 mmHg 46%
    08:00 +25°C° 0 mm 1 mps 700 mmHg 42%
    09:00 +28°C° 0 mm 1 mps 700 mmHg 34%
    10:00 +30°C° 0 mm 1 mps 700 mmHg 26%
    11:00 +34°C° 0 mm 2 mps 700 mmHg 19%
    12:00 +35°C° 0 mm 2 mps 699 mmHg 16%
    13:00 +36°C° 0 mm 2 mps 698 mmHg 13%
    14:00 +37°C° 0 mm 2 mps 698 mmHg 11%
    15:00 +37°C° 0 mm 2 mps 697 mmHg 11%
    16:00 +36°C° 0 mm 2 mps 697 mmHg 11%
    17:00 +36°C° 0 mm 2 mps 697 mmHg 11%
    18:00 +34°C° 0 mm 2 mps 698 mmHg 13%
    19:00 +31°C° 0 mm 2 mps 698 mmHg 16%
    20:00 +28°C° 0 mm 2 mps 699 mmHg 18%
    21:00 +27°C° 0 mm 2 mps 699 mmHg 22%
    22:00 +26°C° 0 mm 2 mps 699 mmHg 26%
    23:00 +25°C° 0 mm 2 mps 699 mmHg 31%

    26 February, Tuesday

    Time Temperature Precipitation Wind Pressure Humidity
    00:00 +25°C° 0 mm 2 mps 698 mmHg 43%
    01:00 +24°C° 0 mm 1 mps 698 mmHg 55%
    02:00 +23°C° 0 mm 1 mps 697 mmHg 67%
    03:00 +23°C° 0 mm 1 mps 697 mmHg 75%
    04:00 +22°C° 0 mm 1 mps 697 mmHg 83%
    05:00 +22°C° 0 mm 1 mps 697 mmHg 90%
    06:00 +23°C° 0 mm 1 mps 698 mmHg 83%
    07:00 +24°C° 0 mm 1 mps 699 mmHg 75%
    08:00 +25°C° 0 mm 1 mps 700 mmHg 68%
    09:00 +28°C° 0 mm 2 mps 700 mmHg 56%
    10:00 +30°C° 0 mm 2 mps 700 mmHg 43%
    11:00 +32°C° 0 mm 2 mps 700 mmHg 31%
    12:00 +34°C° 0 mm 2 mps 699 mmHg 28%
    13:00 +35°C° 0 mm 2 mps 698 mmHg 24%
    14:00 +36°C° 0 mm 2 mps 697 mmHg 20%
    15:00 +36°C° 0 mm 2 mps 697 mmHg 20%
    16:00 +36°C° 0 mm 2 mps 697 mmHg 20%
    17:00 +36°C° 0 mm 2 mps 697 mmHg 19%
    18:00 +34°C° 0 mm 2 mps 697 mmHg 22%
    19:00 +31°C° 0 mm 3 mps 697 mmHg 25%
    20:00 +29°C° 0 mm 3 mps 698 mmHg 27%
    21:00 +29°C° 0 mm 3 mps 698 mmHg 33%
    22:00 +28°C° 0 mm 3 mps 698 mmHg 40%
    23:00 +27°C° 0 mm 3 mps 698 mmHg 46%

    27 February, Wednesday

    Time Temperature Precipitation Wind Pressure Humidity
    00:00 +26°C° 0 mm 3 mps 697 mmHg 54%
    01:00 +25°C° 0 mm 2 mps 697 mmHg 62%
    02:00 +24°C° 0 mm 1 mps 696 mmHg 70%
    03:00 +24°C° 0 mm 1 mps 697 mmHg 73%
    04:00 +23°C° 0 mm 1 mps 697 mmHg 75%
    05:00 +23°C° 0 mm 1 mps 697 mmHg 78%
    06:00 +24°C° 0 mm 1 mps 698 mmHg 72%
    07:00 +25°C° 0 mm 1 mps 699 mmHg 66%
    08:00 +26°C° 0 mm 1 mps 699 mmHg 60%
    09:00 +28°C° 0 mm 1 mps 699 mmHg 50%
    10:00 +30°C° 0 mm 1 mps 700 mmHg 40%
    11:00 +33°C° 0 mm 1 mps 700 mmHg 31%
    12:00 +33°C° 0 mm 1 mps 699 mmHg 28%
    13:00 +35°C° 0 mm 2 mps 698 mmHg 25%
    14:00 +36°C° 0 mm 2 mps 697 mmHg 23%
    15:00 +36°C° 0 mm 2 mps 697 mmHg 22%
    16:00 +36°C° 0 mm 2 mps 697 mmHg 21%
    17:00 +35°C° 0 mm 2 mps 697 mmHg 20%
    18:00 +33°C° 0 mm 1 mps 697 mmHg 22%
    19:00 +31°C° 0 mm 1 mps 698 mmHg 24%
    20:00 +30°C° 0 mm 1 mps 698 mmHg 26%
    21:00 +29°C° 0 mm 1 mps 698 mmHg 29%
    22:00 +28°C° 0 mm 2 mps 698 mmHg 32%
    23:00 +27°C° 0 mm 2 mps 698 mmHg 35%
    Show more